Regional Weather Roundup
Issued by NWS

Home | Current Version | Previous Version | Text Only | Print | Product List | Glossary Off
Versions: 1 2 3 4 5 6 7 8 9 10 11 12 13 14 15 16 17 18 19 20 21 22 23 24 25 26 27 28 29 30 31 32 33 34 35 36 37 38 39 40 41 42 43 44 45 46 47 48 49 50

000
ASUS43 KLMK 220502
RWRKY
KENTUCKY REGIONAL WEATHER ROUNDUP
NATIONAL WEATHER SERVICE LOUISVILLE KY
1200 AM EST MON JAN 22 2018

NOTE "FAIR" INDICATES FEW OR NO CLOUDS BELOW 12,000 FEET
WITH NO SIGNIFICANT WEATHER AND/OR OBSTRUCTIONS TO VISIBILITY.

KYZ001>023-026-027-061>063-070>075-220600-
WESTERN AND SOUTH CENTRAL KENTUCKY

CITY           SKY/WX    TMP DP  RH WIND       PRES   REMARKS
PADUCAH        MOCLDY    60  46  59 S13       29.88F
HENDERSON      MOCLDY    56  46  69 S16       29.92F
OWENSBORO      CLOUDY    53  45  74 S12       29.95F
HOPKINSVILLE   FAIR      59  44  56 S8        29.96F
BOWLING GREEN  FAIR      60  45  57 S14G24    30.00F
GLASGOW        NOT AVBL
$$

KYZ024-025-028>034-038-045-046-053-220600-
NORTH CENTRAL KENTUCKY

CITY           SKY/WX    TMP DP  RH WIND       PRES   REMARKS
LOUISVILLE/SDF CLOUDY    56  49  77 CALM      30.00S
LOUISVILLE/LOU CLOUDY    52  50  93 CALM      30.00F
FORT KNOX      CLOUDY    56  48  76 S8        29.98R
$$

KYZ035>037-039>044-047>052-055>060-089>105-220600-
NORTHEAST KENTUCKY

CITY           SKY/WX    TMP DP  RH WIND       PRES   REMARKS
LEXINGTON      FAIR      54  43  66 S10       30.04F
COVINGTON      CLOUDY    50  49  96 S8        30.00F
FRANKFORT      MOCLDY    55  45  68 S8        30.01F
$$

KYZ054-064>069-076>088-106>120-220600-
SOUTHEAST KENTUCKY

CITY           SKY/WX    TMP DP  RH WIND       PRES   REMARKS
JACKSON        CLOUDY    56  43  61 VRB3      30.08F
LONDON         CLOUDY    55  42  61 SE5       30.08F
SOMERSET       NOT AVBL
MIDDLESBORO    CLOUDY    44  41  88 CALM      30.14F
MONTICELLO     MOCLDY    60  43  53 SE7       30.07
$$





USA.gov is the U.S. government's official web portal to all federal, state and local government web resources and services.